Weather History for KMCO - June, 2014

Change the Weather History Date:

Monday, June 9, 2014

  Actual Average Record
Temperature  
Mean Temperature 83 °F 81 °F  
Max Temperature 93 °F 91 °F 100 °F (1907)
Min Temperature 73 °F 71 °F 58 °F (1921)
Degree Days  
Heating Degree Days 0 0  
Month to date heating degree days 0 0  
Since 1 June heating degree days 0 0  
Since 1 July heating degree days 406 571  
Cooling Degree Days 18 16  
Month to date cooling degree days 140 140  
Year to date cooling degree days 1074 941  
Since 1 June cooling degree days 140 140  
Growing Degree Days 33 (Base 50)    
Moisture  
Dew Point 69 °F    
Average Humidity 64    
Maximum Humidity 87    
Minimum Humidity 41    
Precipitation  
Precipitation T in 0.25 in 2.76 in (1949)
Month to date precipitation 0.17 2.14  
Year to date precipitation 17.52 16.77  
Sea Level Pressure  
Sea Level Pressure 29.96 in    
Wind  
Wind Speed 6 mph (North)    
Max Wind Speed 20 mph    
Max Gust Speed 23 mph    
Visibility 10 miles    
Events Rain , Thunderstorm    
T = Trace of Precipitation, MM = Missing Value Source: NWS Daily Summary

Daily Weather History Graph

Daily Weather History Graph

Search for Another Location

Airport or City:

Trip Planner

Search our weather history database for the weather conditions in past years. The results will help you decide how hot, cold, wet, or windy it might be!

Date:

Astronomy

Jun. 09, 2014 Rise Set
Actual Time 6:27 AM EDT 8:21 PM EDT
Civil Twilight 6:00 AM EDT 8:48 PM EDT
Nautical Twilight 5:28 AM EDT 9:21 PM EDT
Astronomical Twilight 4:53 AM EDT 9:55 PM EDT
Moon 4:56 PM EDT (6/9) 3:36 AM EDT (6/9)
Length of Visible Light 14h 48m
Length of Day
13h 54m
Waxing Gibbous, 85% of the Moon is Illuminated
Jun 9
Waxing Gibbous
Jun 13
Full
Jun 19
Last Quarter
Jun 27
New
Jul 5
First Quarter

Hourly Weather History & Observations

Time (EDT) Temp. Heat Index Dew Point Humidity Pressure Visibility Wind Dir Wind Speed Gust Speed Precip Events Conditions
12:53 AM 73.9 °F - 70.0 °F 87% 29.99 in 10.0 mi SW 5.8 mph - N/A   Overcast
1:53 AM 75.0 °F - 69.1 °F 82% 29.97 in 10.0 mi West 6.9 mph - N/A   Overcast
2:53 AM 73.9 °F - 69.1 °F 85% 29.94 in 10.0 mi West 5.8 mph - N/A   Mostly Cloudy
3:53 AM 73.0 °F - 69.1 °F 87% 29.91 in 10.0 mi West 4.6 mph - N/A   Scattered Clouds
4:53 AM 73.0 °F - 69.1 °F 87% 29.91 in 10.0 mi NW 3.5 mph - N/A   Scattered Clouds
5:53 AM 73.0 °F - 69.1 °F 87% 29.91 in 10.0 mi NNW 4.6 mph - N/A   Mostly Cloudy
6:53 AM 73.9 °F - 68.0 °F 82% 29.94 in 10.0 mi Calm Calm - N/A   Mostly Cloudy
7:53 AM 75.9 °F - 69.1 °F 79% 29.97 in 10.0 mi Calm Calm - N/A   Mostly Cloudy
8:53 AM 78.1 °F - 68.0 °F 71% 29.98 in 10.0 mi NW 4.6 mph - N/A   Mostly Cloudy
9:53 AM 82.0 °F 84.9 °F 68.0 °F 62% 29.99 in 10.0 mi North 4.6 mph - N/A   Mostly Cloudy
10:53 AM 86.0 °F 90.1 °F 69.1 °F 57% 29.99 in 10.0 mi North 4.6 mph - N/A   Scattered Clouds
11:53 AM 89.1 °F 92.9 °F 68.0 °F 50% 30.00 in 10.0 mi Variable 4.6 mph - N/A   Scattered Clouds
12:53 PM 90.0 °F 93.6 °F 68.0 °F 48% 30.00 in 10.0 mi SSE 6.9 mph - N/A   Scattered Clouds
1:53 PM 91.0 °F 94.3 °F 66.9 °F 45% 29.98 in 10.0 mi Variable 3.5 mph - N/A   Mostly Cloudy
3:53 PM 91.9 °F 94.5 °F 66.0 °F 42% 29.94 in 10.0 mi SSE 9.2 mph - N/A Thunderstorm Thunderstorm
4:53 PM 93.0 °F 95.9 °F 66.0 °F 41% 29.93 in 10.0 mi Variable 6.9 mph - N/A Thunderstorm Thunderstorm
5:53 PM 87.1 °F 92.0 °F 70.0 °F 57% 29.94 in 10.0 mi East 11.5 mph - N/A Thunderstorm Thunderstorm
6:07 PM 86.0 °F 90.7 °F 70.0 °F 59% 29.94 in 10.0 mi ENE 11.5 mph - N/A   Mostly Cloudy
6:53 PM 88.0 °F 89.6 °F 64.9 °F 46% 29.94 in 10.0 mi ENE 10.4 mph - 0.00 in   Mostly Cloudy
7:42 PM 86.0 °F 88.8 °F 66.9 °F 53% 29.97 in 10.0 mi ENE 4.6 mph - N/A Thunderstorm Thunderstorm
7:53 PM 86.0 °F 90.1 °F 69.1 °F 57% 29.96 in 10.0 mi NW 9.2 mph - N/A Thunderstorm Thunderstorm
8:21 PM 82.0 °F 85.5 °F 69.1 °F 65% 29.97 in 10.0 mi West 4.6 mph - N/A   Mostly Cloudy
8:53 PM 82.0 °F 85.9 °F 70.0 °F 67% 29.96 in 10.0 mi East 3.5 mph - N/A   Mostly Cloudy
9:53 PM 80.1 °F 82.9 °F 69.1 °F 69% 29.97 in 10.0 mi SE 5.8 mph - N/A   Scattered Clouds
10:53 PM 80.1 °F 83.8 °F 72.0 °F 76% 29.99 in 10.0 mi SE 5.8 mph - N/A   Scattered Clouds
11:53 PM 78.1 °F - 73.0 °F 84% 30.00 in 10.0 mi ESE 6.9 mph - N/A   Partly Cloudy